Regional Weather Roundup
Issued by NWS

Home | Current Version | Previous Version | Graphics & Text | Print | Product List | Glossary On
Versions: 1 2 3 4 5 6 7 8 9 10 11 12 13 14 15 16 17 18 19 20 21 22 23 24 25 26 27 28 29 30 31 32 33 34 35 36 37 38 39 40 41 42 43 44 45 46 47 48 49 50
000
ASUS43 KMPX 301410
RWRMN
WEATHER ROUNDUP FOR MINNESOTA
NATIONAL WEATHER SERVICE TWIN CITIES/CHANHASSEN MN
900 AM CDT THU MAR 30 2017


NOTE: "FAIR" INDICATES FEW OR NO CLOUDS BELOW 12,000 FEET WITH NO
SIGNIFICANT WEATHER AND/OR OBSTRUCTIONS TO VISIBILITY. N/A MEANS
CURRENT SKY AND/OR WEATHER CONDITIONS ARE NOT AVAILABLE.

MNZ060>063-068>070-301500-
   Twin Cities Metro

CITY           SKY/WX    TMP DP  RH WIND       PRES   REMARKS
TWIN CITIES    CLOUDY    39  34  82 E12       29.92F
ST PAUL        CLOUDY    39  36  89 E10       29.93F
CRYSTAL        CLOUDY    39  33  79 E13       29.92F
BLAINE         CLOUDY    41  36  81 NE9       29.93F
LAKEVILLE      CLOUDY    36  36 100 NE15      29.89F
EDEN PRAIRIE   CLOUDY    40  35  83 E14       29.89F
SOUTH ST PAUL  CLOUDY    38  37  94 NE8       29.92F
LAKE ELMO      CLOUDY    37  36  93 NE13      29.93F
$$
MNZ001>005-007-008-013>017-022>024-027-028-301500-
   Northwest Minnesota

CITY           SKY/WX    TMP DP  RH WIND       PRES   REMARKS
BEMIDJI        FOG       31  31  99 CALM      29.97F VSB 1/4
HALLOCK        DRIZZLE   39  37  93 S16       29.91F
ROSEAU         CLOUDY    37  34  87 S7        29.95F
WARROAD        MOSUNNY   37  34  87 S5        29.96F
THIEF RVR FALL SUNNY     37  35  92 S9        29.96F
CROOKSTON      MOSUNNY   37  37 100 S9        29.96F
FOSSTON        FOG       34  34 100 SE5       29.97F VSB 1/4 WCI  30
DETROIT LAKES  FOG       36  36 100 SE7       29.95S VSB 1/4
MOORHEAD       SUNNY     36  36 100 CALM      29.96S FOG
PARK RAPIDS    CLOUDY    33  31  92 CALM      29.94F FOG
MAHNOMEN       FOG       36  35  99 CALM      29.96F VSB 1/4
$$
MNZ006-009>011-018-025>026-301500-
   North Central Minnesota

CITY           SKY/WX    TMP DP  RH WIND       PRES   REMARKS
BAUDETTE       MOSUNNY   35  30  82 S5        29.98F WCI  31
FLAG ISLAND    CLOUDY    34  30  86 S13       29.96S WCI  25
INTL FALLS     SUNNY     33  26  75 SE5       30.01F WCI  29
WASKISH        SUNNY     36  32  87 CALM      29.98F
BIG FORK       SUNNY     34  28  80 CALM      30.00S
LONGVILLE      FOG       28  28 100 CALM      29.97F VSB 3/4
GRAND RAPIDS   FOG       29  29 100 CALM      30.01F VSB 1/4
CRANE LAKE     SUNNY     28  27  93 CALM      30.05F
ORR            SUNNY     34  25  69 CALM      29.99F
COOK           SUNNY     34  27  75 CALM      30.01F
WALKER         FAIR      31  29  91 E6        29.96F WCI  25
$$
MNZ012-019>021-037-301500-
   Northeast Minnesota

CITY           SKY/WX    TMP DP  RH WIND       PRES   REMARKS
DULUTH         MOSUNNY   35  30  82 E14       30.00F WCI  26
ELY            SUNNY     34  27  75 CALM      30.01F
HIBBING        PTSUNNY   31  29  92 E3        30.00F
EVELETH        SUNNY     34  28  80 NE3       30.01S
DULUTH HARBOR  CLOUDY    36  34  93 NE17      30.04F
TWO HARBORS    MOSUNNY   37  30  75 NE8       30.00F
SILVER BAY     MOSUNNY   36  30  80 NE13G18   30.02F
GRAND MARAIS     N/A     37  28  70 NE10      30.08F
G MARAIS ARPRT CLOUDY    32  19  59 E9        30.04S WCI  24
$$
MNZ029>031-032-039>041-046>048-054>057-064-301500-
   West Central Minnesota

CITY           SKY/WX    TMP DP  RH WIND       PRES   REMARKS
FERGUS FALLS   SUNNY     39  37  93 E5        29.96F
WHEATON        SUNNY     39  36  87 E8        29.95F
MORRIS         SUNNY     41  37  87 E16       29.91F
ALEXANDRIA     CLOUDY    38  35  89 E12       29.93F
ELBOW LAKE     FAIR      40  37  88 SE12      29.93F FOG
WADENA         SUNNY     34  30  86 E6        29.94F WCI  29
GLENWOOD       CLOUDY    37  36  93 E13       29.93F
APPLETON       CLOUDY    41  37  87 E13       29.91F
BENSON         CLOUDY    43  34  70 SE9       29.93F
ORTONVILLE     CLOUDY    39  36  87 E8        29.91F
MADISON        CLOUDY    43  43 100 E13       29.91S
WILLMAR        PTSUNNY   39  37  93 E13       29.93F
$$
MNZ033>034-036-042>043-049>051-058-059-301500-
   Central Minnesota

CITY           SKY/WX    TMP DP  RH WIND       PRES   REMARKS
ST CLOUD       CLOUDY    37  31  78 E10       29.95F
SAUK CENTRE    CLOUDY    38  33  84 E9        29.94F
PAYNESVILLE    CLOUDY    38  33  84 E8        29.94S
AITKIN         FOG       34  28  80 NE6       29.98S VSB 1/2 WCI  29
PINE RIVER     FOG       28  28 100 E3        30.00F VSB 1/4
BRAINERD       CLOUDY    33  30  88 NE7       29.98S WCI  27
STAPLES        CLOUDY    34  32  93 E5        29.95F WCI  30
LONG PRAIRIE   PTSUNNY   36  32  87 NE8       29.94F
LITTLE FALLS   CLOUDY    36  32  87 E8        29.96F
LITCHFIELD     CLOUDY    39  36  87 NE9       29.93S
BUFFALO        CLOUDY    37  33  84 NE13      29.95S
MAPLE LAKE     CLOUDY    38  34  87 NE8       29.95S
HUTCHINSON     CLOUDY    39  37  92 NE15      29.92F
$$
MNZ037-044-045-052-053-301500-
   East Central Minnesota

CITY           SKY/WX    TMP DP  RH WIND       PRES   REMARKS
PRINCETON      CLOUDY    37  30  75 NE6       29.96F
MORA           CLOUDY    34  30  86 NE3       29.99F
CAMBRIDGE      CLOUDY    39  28  65 NE5       29.94F
RUSH CITY      CLOUDY    36  30  78 NE8       29.96F
MOOSE LAKE     CLOUDY    34  32  93 NE5       29.99S WCI  30
CLOQUET        CLOUDY    34  28  80 E8        30.00F WCI  27
MCGREGOR       CLOUDY    32  32 100 E6        30.00F WCI  26
$$
MNZ071>073-080-081-089-090-097-098-301500-
   Southwest Minnesota

CITY           SKY/WX    TMP DP  RH WIND       PRES   REMARKS
MONTEVIDEO     CLOUDY    39  39 100 E14       29.90F
GRANITE FALLS  CLOUDY    42  38  85 NE13      29.91F
CANBY          CLOUDY    40  38  95 CALM      29.91S
MARSHALL       CLOUDY    38  37  97 E14       29.89F
REDWOOD FALLS  CLOUDY    39  36  89 E10G18    29.90S
OLIVIA         CLOUDY    39  36  87 E10G16    29.90F
PIPESTONE      CLOUDY    37  34  87 E10G18    29.84F FOG
WINDOM         CLOUDY    37  37 100 NE12      29.86R FOG
WORTHINGTON    CLOUDY    36  35  96 NE17      29.84F
JACKSON          N/A     36  36 100 NE16      29.85S
TRACY          CLOUDY    38  38  99 NE12G17   29.88F FOG
SLAYTON        CLOUDY    36  35  98 NE14      29.86F FOG
$$
MNZ065>067-074>077-082>085-091>093-301500-
   South Central Minnesota

CITY           SKY/WX    TMP DP  RH WIND       PRES   REMARKS
MANKATO        LGT RAIN  38  35  89 NE17      29.86F
NEW ULM        CLOUDY    37  36  93 NE14      29.87F
ST JAMES       DRIZZLE   37  37 100 NE10      29.88R
FAIRMONT       CLOUDY    38  36  92 NE15      29.84S
GLENCOE        CLOUDY    39  39 100 NE6       29.90F
FARIBAULT      CLOUDY    37  36  93 NE13G20   29.88S
OWATONNA       CLOUDY    37  36  93 NE16G24   29.85F
WASECA         CLOUDY    36  34  93 NE18G24   29.86F
ALBERT LEA     CLOUDY    36  36 100 E18G24    29.81F FOG
$$
MNZ078>079-086>088-094>096-301500-
   Southeast Minnesota

CITY           SKY/WX    TMP DP  RH WIND       PRES   REMARKS
ROCHESTER      CLOUDY    36  36 100 NE15      29.84F FOG
RED WING       CLOUDY    37  36  93 E13       29.90F
STANTON        RAIN      38  35  90 NE13      29.88F
DODGE CENTER   CLOUDY    36  36 100 NE17      29.85S FOG
WINONA         CLOUDY    37  36  93 E10       29.89F FOG
AUSTIN         CLOUDY    37  36  93 E17G24    29.81F
PRESTON        CLOUDY    35  34  94 NE10      29.84S FOG     WCI  28
$$
ABBREVIATIONS USED IN REMARKS
   TC - TEMPERATURES IN CELSIUS
  WCI - WIND CHILL INDEX
   HX - HEAT INDEX
  VSB - VISIBILITY
$$




USA.gov is the U.S. government's official web portal to all federal, state and local government web resources and services.